Latest Weather Observations for Proserpine

IDQ60801

Issued at 1:05 pm EST Wednesday 22 October 2014 (issued every 30 minutes, with the page automatically refreshed every 10 minutes)

About weather observations | Map of weather stations | Latest weather observations for QLD | Other Formats
Station Details ID: 033247 Name: PROSERPINE AIRPORT Lat: -20.49 Lon: 148.56 Height: 19.7 m
Data from the previous 72 hours. | See also: Recent months at Proserpine
Date/Time
EST
Temp
°C
App
Temp
°C
Dew
Point
Rel
Hum
%
Delta-T
°C
Wind Press
QNH
hPa
Press
MSL
hPa
Rain
since 9 am
mm
Dir
 
Spd
km/h
Gust
km/h
Spd
kts
Gust
kts
22/01:00pm 27.1 22.6 14.8 47 7.4 E 32 46 17 25 1019.2 - 0.0
22/12:30pm 26.8 21.6 14.5 46 7.4 ESE 35 46 19 25 1019.7 - 0.0
22/12:00pm 27.7 22.6 14.7 45 7.8 E 35 50 19 27 1020.4 1020.2 0.0
22/11:43am 28.0 23.4 14.6 44 8.1 ESE 32 54 17 29 1020.7 - 0.0
22/11:30am 27.0 22.0 13.4 43 8.0 ESE 32 46 17 25 1020.8 - 0.0
22/11:00am 28.3 22.8 12.6 38 9.2 SE 33 46 18 25 1021.1 - 0.0
22/10:30am 26.7 21.4 14.1 46 7.5 SE 35 50 19 27 1021.5 - 0.0
22/10:15am 27.1 21.8 14.1 44 7.8 ESE 35 54 19 29 1021.4 - 0.0
22/10:00am 25.8 20.0 14.0 48 7.0 ESE 37 50 20 27 1021.4 - 0.0
22/09:30am 26.5 21.2 14.3 47 7.3 ESE 35 46 19 25 1021.6 - 0.0
22/09:00am 25.2 21.0 15.8 56 5.7 ESE 32 46 17 25 1021.7 1021.5 0.0
22/08:30am 25.2 20.9 15.8 56 5.7 SE 33 41 18 22 1021.7 - 0.0
22/08:00am 24.3 19.9 15.2 57 5.5 SE 32 44 17 24 1021.5 - 0.0
22/07:30am 22.7 20.8 15.8 65 4.2 SSE 20 28 11 15 1021.4 - 0.0
22/07:00am 21.3 19.9 15.6 70 3.4 SSE 17 24 9 13 1021.1 - 0.0
22/06:30am 20.2 18.1 15.2 73 2.9 S 20 28 11 15 1020.7 - 0.0
22/06:00am 20.0 18.2 15.4 75 2.7 S 19 24 10 13 1020.4 1020.2 0.0
22/05:30am 20.0 18.2 15.4 75 2.7 S 19 24 10 13 1020.0 - 0.0
22/05:00am 20.0 18.2 15.6 76 2.6 S 19 24 10 13 1019.8 - 0.0
22/04:30am 19.9 17.9 15.5 76 2.6 S 20 28 11 15 1019.7 - 0.0
22/04:00am 19.9 18.0 15.7 77 2.5 S 20 30 11 16 1019.5 - 0.0
22/03:30am 20.0 18.3 15.8 77 2.5 S 19 26 10 14 1019.5 - 0.0
22/03:00am 19.9 18.1 16.0 78 2.3 S 20 28 11 15 1019.7 1019.6 0.0
22/02:30am 20.0 18.2 16.0 78 2.4 S 20 30 11 16 1019.8 - 0.0
22/02:00am 20.1 18.5 16.1 78 2.4 S 19 28 10 15 1020.0 - 0.0
22/01:30am 20.3 19.2 16.3 78 2.4 S 17 22 9 12 1020.4 - 0.0
22/01:00am 20.6 19.9 16.4 77 2.5 SSE 15 22 8 12 1020.9 - 0.0
22/12:30am 20.9 20.7 16.7 77 2.5 S 13 17 7 9 1021.4 - 0.0
22/12:00am 20.9 20.7 16.7 77 2.5 SSE 13 19 7 10 1021.7 1021.5 0.0
 
Date/Time
EST
Temp
°C
App
Temp
°C
Dew
Point
Rel
Hum
%
Delta-T
°C
Wind Press
QNH
hPa
Press
MSL
hPa
Rain
since 9 am
mm
Dir
 
Spd
km/h
Gust
km/h
Spd
kts
Gust
kts
21/11:30pm 21.0 20.4 16.6 76 2.7 S 15 20 8 11 1022.0 - 0.0
21/11:00pm 21.9 21.1 17.1 74 2.9 SSE 17 26 9 14 1022.1 - 0.0
21/10:30pm 22.2 18.9 16.9 72 3.2 SE 30 43 16 23 1022.1 - 0.0
21/10:00pm 22.2 19.6 16.9 72 3.2 ESE 26 35 14 19 1022.2 - 0.0
21/09:30pm 22.3 20.9 17.0 72 3.3 SE 20 33 11 18 1022.2 - 0.0
21/09:00pm 22.0 20.9 17.2 74 2.9 SE 19 26 10 14 1022.1 1021.9 0.0
21/08:30pm 22.5 20.3 16.8 70 3.5 ESE 24 37 13 20 1021.8 - 0.0
21/08:00pm 22.0 20.0 16.5 71 3.3 ESE 22 33 12 18 1021.7 - 0.0
21/07:30pm 22.2 19.5 16.5 70 3.5 ESE 26 35 14 19 1021.4 - 0.0
21/07:00pm 22.1 19.9 16.8 72 3.2 ESE 24 35 13 19 1021.3 - 0.0
21/06:30pm 22.3 19.7 16.8 71 3.4 ESE 26 32 14 17 1021.1 - 0.0
21/06:00pm 22.5 19.5 16.8 70 3.5 ESE 28 37 15 20 1020.9 1020.6 0.0
21/05:30pm 23.3 21.0 17.7 71 3.5 ESE 26 37 14 20 1020.5 - 0.0
21/05:00pm 22.8 20.9 16.6 68 3.8 ESE 22 32 12 17 1020.4 - 0.0
21/04:30pm 23.3 19.6 16.1 64 4.4 ESE 30 39 16 21 1020.0 - 0.0
21/04:00pm 23.8 20.7 15.6 60 4.9 SE 26 43 14 23 1020.0 - 0.0
21/03:30pm 24.0 18.3 15.2 58 5.3 SE 39 52 21 28 1020.0 - 0.0
21/03:02pm 24.2 19.5 15.9 59 5.0 ESE 35 54 19 29 1019.8 - 0.0
21/03:00pm 24.9 20.4 16.3 59 5.3 E 35 48 19 26 1019.8 1019.7 0.0
21/02:30pm 25.0 20.5 16.4 59 5.3 ESE 35 52 19 28 1019.8 - 0.0
21/02:28pm 24.9 20.6 15.8 57 5.5 ESE 33 52 18 28 1019.8 - 0.0
21/02:00pm 26.4 22.6 15.8 52 6.5 ESE 30 43 16 23 1020.1 - 0.0
21/01:30pm 26.9 22.2 13.3 43 8.0 ESE 30 43 16 23 1020.5 - 0.0
21/01:00pm 27.9 22.7 13.4 40 8.6 ESE 33 44 18 24 1020.8 - 0.0
21/12:30pm 27.6 22.0 12.0 38 9.0 ESE 33 44 18 24 1021.2 - 0.0
21/12:00pm 27.5 21.7 12.7 40 8.6 ESE 35 50 19 27 1021.5 1021.3 0.0
21/11:30am 28.8 24.9 16.4 47 7.7 ESE 32 50 17 27 1021.9 - 0.0
21/11:00am 27.3 23.0 14.3 45 7.8 ESE 30 43 16 23 1022.1 - 0.0
21/10:30am 25.6 20.5 13.8 48 7.0 SE 33 44 18 24 1022.2 - 0.0
21/10:28am 26.1 20.1 13.2 44 7.6 SSE 37 44 20 24 1022.2 - 0.0
21/10:00am 26.3 21.3 13.4 45 7.6 ESE 32 43 17 23 1022.3 - 0.0
21/09:30am 27.1 23.1 16.1 51 6.8 ESE 32 44 17 24 1022.1 - 0.0
21/09:00am 25.2 20.6 14.6 51 6.3 ESE 32 48 17 26 1022.2 1022.0 0.0
21/08:30am 25.7 23.9 17.9 62 4.9 ESE 24 35 13 19 1022.0 - 0.0
21/08:00am 23.2 19.9 16.0 64 4.4 SE 28 37 15 20 1021.8 - 0.0
21/07:30am 22.6 19.7 16.2 67 3.9 SE 26 37 14 20 1021.4 - 0.0
21/07:00am 22.3 21.1 16.1 68 3.7 S 17 20 9 11 1021.0 - 0.0
21/06:30am 20.1 18.7 15.5 75 2.7 S 17 24 9 13 1020.7 - 0.0
21/06:00am 19.2 19.5 16.1 82 1.8 S 9 17 5 9 1020.2 1020.1 0.0
21/05:30am 18.8 18.2 15.7 82 1.8 S 13 19 7 10 1020.1 - 0.0
21/05:00am 19.2 18.4 16.1 82 1.8 S 15 20 8 11 1019.7 - 0.0
21/04:30am 18.6 18.4 15.8 84 1.7 S 11 15 6 8 1019.3 - 0.0
21/04:00am 18.8 18.0 16.0 84 1.7 S 15 20 8 11 1019.2 - 0.0
21/03:30am 18.6 17.7 15.8 84 1.7 S 15 19 8 10 1019.2 - 0.0
21/03:00am 18.7 18.2 15.9 84 1.7 S 13 19 7 10 1019.1 1019.0 0.0
21/02:30am 19.0 18.2 16.0 83 1.8 S 15 19 8 10 1019.4 - 0.0
21/02:00am 19.6 18.9 16.3 81 2.0 S 15 20 8 11 1019.7 - 0.0
21/01:30am 20.1 19.1 16.5 80 2.2 S 17 20 9 11 1020.1 - 0.0
21/01:00am 20.2 19.7 16.8 81 2.1 S 15 20 8 11 1020.6 - 0.0
21/12:30am 20.6 19.7 16.8 79 2.3 S 17 22 9 12 1020.9 - 0.0
21/12:00am 20.8 20.3 17.0 79 2.3 SSE 15 22 8 12 1021.1 1020.9 0.0
 
Date/Time
EST
Temp
°C
App
Temp
°C
Dew
Point
Rel
Hum
%
Delta-T
°C
Wind Press
QNH
hPa
Press
MSL
hPa
Rain
since 9 am
mm
Dir
 
Spd
km/h
Gust
km/h
Spd
kts
Gust
kts
20/11:30pm 20.6 19.5 17.2 81 2.1 S 19 26 10 14 1021.3 - 0.0
20/11:00pm 20.4 19.6 17.2 82 2.0 SSE 17 22 9 12 1021.7 - 0.0
20/10:30pm 20.5 20.2 17.3 82 2.0 SSE 15 22 8 12 1021.9 - 0.0
20/10:00pm 21.5 21.5 17.1 76 2.7 S 13 24 7 13 1021.8 - 0.0
20/09:30pm 21.7 21.3 17.1 75 2.8 SSE 15 24 8 13 1021.8 - 0.0
20/09:00pm 21.7 20.7 17.5 77 2.6 SE 19 24 10 13 1021.8 1021.5 0.0
20/08:30pm 21.7 21.1 17.5 77 2.6 ESE 17 24 9 13 1021.6 - 0.0
20/08:00pm 21.9 20.8 17.7 77 2.6 SE 20 28 11 15 1021.2 - 0.0
20/07:30pm 21.8 20.7 17.2 75 2.8 ESE 19 26 10 14 1020.9 - 0.0
20/07:00pm 21.9 20.6 17.3 75 2.8 ESE 20 30 11 16 1020.6 - 0.0
20/06:30pm 22.3 20.5 17.0 72 3.3 ESE 22 32 12 17 1020.1 - 0.0
20/06:00pm 22.9 20.7 16.9 69 3.7 ESE 24 35 13 19 1019.8 1019.6 0.0
20/05:30pm 23.7 20.9 17.2 67 4.0 ESE 28 41 15 22 1019.2 - 0.0
20/05:00pm 24.3 21.4 17.1 64 4.5 ESE 28 39 15 21 1018.8 - 0.0
20/04:30pm 24.3 20.3 16.8 63 4.6 ESE 33 44 18 24 1018.4 - 0.0
20/04:00pm 25.1 22.0 17.6 63 4.7 ESE 30 39 16 21 1018.3 - 0.0
20/03:30pm 24.9 21.3 16.3 59 5.3 ESE 30 39 16 21 1018.3 - 0.0
20/03:00pm 25.3 21.3 16.2 57 5.6 ESE 32 44 17 24 1018.4 - 0.0
20/02:30pm 26.0 22.1 17.9 61 5.1 ESE 35 48 19 26 1018.7 - 0.0
20/02:05pm 26.5 22.6 16.4 53 6.2 ESE 32 54 17 29 1018.9 - 0.0
20/02:00pm 27.0 23.6 17.8 57 5.8 ESE 32 48 17 26 1018.9 - 0.0
20/01:30pm 26.7 22.7 16.3 53 6.4 ESE 32 46 17 25 1019.4 - 0.0
20/01:00pm 27.7 23.8 15.4 47 7.5 ESE 30 44 16 24 1019.8 - 0.0
20/12:30pm 26.3 22.5 15.7 52 6.5 ESE 30 43 16 23 1020.5 - 0.0
20/12:00pm 26.3 21.8 15.4 51 6.6 ESE 33 46 18 25 1021.1 1021.0 0.0
20/11:30am 26.2 22.5 15.9 53 6.3 SE 30 41 16 22 1021.4 - 0.0
20/11:00am 25.8 21.5 13.3 46 7.3 ESE 28 39 15 21 1021.7 - 0.0
20/10:30am 25.8 21.4 15.2 52 6.4 SE 32 46 17 25 1021.9 - 0.0
20/10:25am 26.3 22.8 15.4 51 6.6 ESE 28 46 15 25 1022.0 - 0.0
20/10:00am 26.4 22.1 14.5 48 7.1 SE 30 43 16 23 1022.3 - 0.0
20/09:30am 25.7 20.7 13.5 46 7.2 SE 32 46 17 25 1022.5 - 0.0
20/09:00am 25.9 20.4 12.0 42 7.9 SE 32 46 17 25 1022.7 1022.5 0.0
20/08:30am 25.6 20.4 13.5 47 7.1 SE 33 43 18 23 1022.6 - 0.0
20/08:00am 25.1 20.3 13.9 49 6.6 SSE 32 44 17 24 1022.3 - 0.0
20/07:30am 23.3 21.0 14.6 58 5.1 SSE 20 30 11 16 1022.2 - 0.0
20/07:00am 21.8 19.5 14.2 62 4.4 S 19 28 10 15 1021.8 - 0.0
20/06:30am 20.2 17.9 14.1 68 3.5 S 19 28 10 15 1021.5 - 0.0
20/06:00am 18.4 16.9 14.1 76 2.5 S 15 20 8 11 1021.3 1021.1 0.0
20/05:30am 18.6 17.3 14.7 78 2.3 S 15 17 8 9 1021.1 - 0.0
20/05:00am 17.2 16.2 14.5 84 1.6 SSW 13 17 7 9 1020.9 - 0.0
20/04:30am 17.2 16.6 14.5 84 1.6 S 11 13 6 7 1020.9 - 0.0
20/04:00am 17.0 16.4 14.5 85 1.4 SSW 11 13 6 7 1020.5 - 0.0
20/03:30am 17.0 16.5 14.8 87 1.3 SSW 11 13 6 7 1020.5 - 0.0
20/03:00am 16.6 15.8 13.9 84 1.5 SSW 11 15 6 8 1020.2 1020.0 0.0
20/02:30am 18.3 17.2 14.4 78 2.2 S 13 20 7 11 1020.2 - 0.0
20/02:00am 19.0 17.7 14.7 76 2.5 S 15 20 8 11 1020.4 - 0.0
20/01:30am 18.7 17.3 14.6 77 2.4 S 15 19 8 10 1020.7 - 0.0
20/01:00am 19.0 17.6 14.5 75 2.6 S 15 20 8 11 1021.0 - 0.0
20/12:30am 19.9 18.2 14.7 72 3.0 S 17 24 9 13 1021.4 - 0.0
20/12:00am 20.0 19.0 14.6 71 3.1 S 13 19 7 10 1021.9 1021.7 0.0
 
Date/Time
EST
Temp
°C
App
Temp
°C
Dew
Point
Rel
Hum
%
Delta-T
°C
Wind Press
QNH
hPa
Press
MSL
hPa
Rain
since 9 am
mm
Dir
 
Spd
km/h
Gust
km/h
Spd
kts
Gust
kts
19/11:30pm 21.1 19.2 15.2 69 3.5 ESE 19 26 10 14 1022.1 - 0.0
19/11:00pm 22.0 19.5 16.1 69 3.6 ESE 24 35 13 19 1022.4 - 0.0
19/10:30pm 21.8 20.2 16.5 72 3.2 ESE 20 32 11 17 1022.6 - 0.0
19/10:00pm 22.1 19.5 16.8 72 3.2 ESE 26 39 14 21 1022.7 - 0.0
19/09:30pm 21.6 20.1 17.6 78 2.5 ESE 22 30 12 16 1022.6 - 0.0
19/09:00pm 22.0 19.4 15.8 68 3.7 ESE 24 33 13 18 1022.4 1022.2 0.0
19/08:30pm 22.6 20.1 16.2 67 3.9 ESE 24 35 13 19 1022.1 - 0.0
19/08:00pm 22.6 19.4 16.4 68 3.8 ESE 28 41 15 22 1021.9 - 0.0
19/07:30pm 22.5 20.4 17.2 72 3.3 ESE 24 35 13 19 1021.7 - 0.0
19/07:00pm 22.4 19.3 15.5 65 4.1 ESE 26 39 14 21 1021.5 - 0.0
19/06:30pm 22.6 18.0 15.0 62 4.5 ESE 33 44 18 24 1021.1 - 0.0
19/06:00pm 22.9 19.1 15.7 64 4.3 ESE 30 43 16 23 1020.6 1020.4 0.0
19/05:31pm 23.6 19.4 15.6 61 4.8 ESE 32 50 17 27 1020.5 - 0.0
19/05:30pm 23.6 19.2 15.6 61 4.8 ESE 33 50 18 27 1020.4 - 0.0
19/05:00pm 24.2 18.5 14.3 54 5.9 ESE 37 50 20 27 1020.2 - 0.0
19/04:34pm 24.6 19.8 15.5 57 5.5 ESE 35 54 19 29 1020.1 - 0.0
19/04:30pm 24.9 20.1 15.5 56 5.7 ESE 35 50 19 27 1020.1 - 0.0
19/04:00pm 24.8 19.6 13.4 49 6.7 ESE 33 48 18 26 1019.8 - 0.0
19/03:32pm 25.2 19.9 15.2 54 6.0 ESE 37 56 20 30 1019.7 - 0.0
19/03:30pm 24.6 18.7 14.7 54 5.9 ESE 39 56 21 30 1019.7 - 0.0
19/03:00pm 25.8 20.9 17.2 59 5.3 ESE 39 52 21 28 1019.6 1019.5 0.0
19/02:30pm 26.5 21.2 16.4 53 6.2 ESE 39 57 21 31 1019.7 - 0.0
19/02:25pm 26.0 21.1 15.4 52 6.4 ESE 35 57 19 31 1019.7 - 0.0
19/02:00pm 26.0 20.9 14.8 50 6.7 ESE 35 50 19 27 1020.0 - 0.0
19/01:30pm 26.5 21.3 14.6 48 7.1 ESE 35 48 19 26 1020.2 - 0.0

Other Formats:

Comma delimited format used in spreadsheet applications
http://www.bom.gov.au/fwo/IDQ60801/IDQ60801.94365.axf

JavaScript Object Notation format (JSON) in row-major order
http://www.bom.gov.au/fwo/IDQ60801/IDQ60801.94365.json